Reflectivity
-20 -20 -20 -20 -20 -20 -20 -20 -20 -20 -20 -20 -20 -20 -20 -20 -20 -20 -20 -20 -20 -20 -20 -20 -20 -20 -20 -20 -20 -20 -16 12 0 -19 -20 5 -20 -20 17 8 -9 -19 -18 -20 -20
-20 -20 -20 -20 -20 -20 -20 -20 -20 -20 -20 -20 -20 -20 -20 -20 -20 -20 -20 -20 -20 -20 -20 -20 -20 -20 -20 -20 -20 33 15 -15 -15 -20 -18 -20 -15 -20 -18 -1 -20 11 -20 -20 -20
-20 -20 -20 -20 -20 -20 -20 -20 -20 -20 -20 -20 -20 -20 -20 -20 -20 -20 -20 -20 -20 -20 -20 -20 -20 -20 -20 -20 -12 44 21 -9 -20 -20 -20 -20 -20 -18 31 -20 -20 -18 -20 -20 -20
9 10 -4 -20 -20 -20 -20 -20 -20 -20 -20 -20 -20 -20 -20 -20 -20 -20 -20 -20 -20 -20 -20 -20 -20 -20 -20 -20 -20 -17 -20 -20 -20 -20 -20 -20 1 -20 30 16 11 -20 -20 -20 -20
8 6 7 11 -5 -20 -20 -20 -20 -20 -20 -20 -20 -20 -20 -20 -20 -20 -20 -20 -20 -20 -20 -20 -20 -20 -20 -20 -18 16 24 -20 -20 -20 -20 -19 -20 -8 20 -2 -20 -20 -20 -20 -20
11 2 7 11 7 2 4 -20 -20 -20 -20 -20 -20 -20 -20 -20 -20 -20 -20 -20 -20 -20 -20 -20 -20 -20 -20 -20 -14 -20 14 -5 -20 -19 -20 -13 12 -18 28 2 -15 -20 -20 -20 -20
12 -20 -19 4 5 -14 2 -20 -20 -20 9 -20 -20 -20 -20 -20 -20 -20 -20 -20 -20 -20 -20 -20 -20 -20 -20 -20 -20 -20 7 -20 -20 -20 -20 -20 -19 -20 20 -19 -5 -18 -20 -20 -20
-20 -20 -13 12 9 -20 -20 -20 -20 -20 -18 -20 -20 -20 -20 -20 -20 -20 -20 -20 -20 -20 -20 -20 -20 -20 -20 -20 -20 -20 -20 -10 -20 -20 -20 -20 24 -18 -19 -20 -20 -5 -20 -20 -20
-20 -20 7 11 3 -20 -20 -20 -20 -20 -20 -20 -20 -20 -20 -20 -20 -20 -20 -20 -20 -20 -20 -20 -20 -20 -20 -20 -20 -20 -20 -17 20 -16 -20 -20 17 6 7 -20 -20 -20 -20 -20 -20
2 -1 8 -19 -20 -20 -20 -20 -20 -20 -20 -20 -20 -20 -20 -20 -20 -20 -20 -20 -20 -20 -20 -20 -20 -20 -20 -20 -20 -20 -20 -6 -10 16 -20 -20 -5 47 27 -20 -20 -20 -20 -20 -20
-7 -3 -15 -20 -20 -20 -20 -20 -20 -20 -20 -20 -20 -20 -20 -20 -20 -20 -20 -20 -20 -20 -20 -20 -20 -20 -20 -20 -20 -20 -20 10 -20 -10 -20 -20 -16 38 8 27 -20 -20 -20 -20 -20
-12 -14 -20 -20 -20 -20 -20 -20 -20 -20 -20 -20 -20 -20 -20 -20 -20 -20 -20 -20 -20 -20 -20 -20 -20 -20 -20 -20 -20 -20 -20 -5 12 34 11 -13 11 -13 20 -6 -20 -13 -20 -5 -6
3 -20 -20 -20 -20 -20 -20 -20 -20 -20 -20 -20 -20 -20 -20 -20 -20 -20 -20 -20 -20 -20 -20 -20 -20 -20 -20 -20 -20 -20 -20 -20 -20 32 25 -0 -5 -12 6 -14 -20 -20 -20 -15 6
-6 -17 -20 -20 -20 -20 -20 -20 -20 -20 -20 -20 -20 -20 -20 -20 -20 -20 -20 -20 -20 -20 -20 -20 -20 -20 -20 -20 -20 -20 -20 -18 11 16 -20 -20 -14 -20 -20 -20 -20 -20 -20 -19 -20
-20 -20 -20 2 -20 -20 -20 -20 -20 -20 -18 -20 -20 -20 -20 -20 -20 -20 -20 -20 -20 -20 -20 -20 -20 -20 -20 -20 -20 -20 -20 -11 -16 -6 -20 -20 -20 -6 -20 32 -17 -20 -20 -20 -20
-20 -20 -14 -20 -20 -20 -20 -20 -20 -20 5 -20 -20 -20 -20 -20 -20 -20 -20 -20 -20 -20 -20 -20 -20 -20 -20 -20 -20 -20 -20 -20 -15 12 -20 -16 -16 -20 -20 21 36 -20 -20 -8 -11
-20 -20 -12 -20 -20 -20 -20 -20 -20 -5 8 -2 -20 -20 -20 -20 -20 -20 -20 -20 -20 -20 -20 -20 -20 -20 -20 -20 -20 -20 -20 -20 -20 -20 -20 -20 11 -18 -20 -6 41 23 -20 -4 25
-20 -20 -20 -20 -20 -20 -20 -20 21 1 21 -4 -20 -20 -20 -20 -20 -20 -20 -20 -20 -20 -20 -20 -20 -20 -20 -20 -20 -20 -20 -20 -20 -20 -20 -20 -18 -20 -20 10 38 12 -20 -20 -20
-0 -20 -20 -20 -20 -20 -19 5 3 26 2 -20 -20 -20 -20 -20 -20 -20 -20 -20 -20 -20 -1 6 -17 -20 -20 -20 -20 -19 -20 -20 -19 -19 -20 -18 12 -20 -20 -16 0 -0 9 -20 32
-20 -20 -20 -20 -20 -9 -12 -3 -1 -9 -20 -20 -3 6 -2 12 -20 -19 -9 2 6 7 -20 -2 -20 1 -20 -20 -20 -2 -20 -20 -9 8 -15 15 -19 -20 -20 -20 -20 -20 -20 -20 6
-20 -6 -19 -20 -20 8 -5 -15 -20 -20 -20 -20 -20 -13 11 18 -5 1 15 4 -20 -20 -20 -20 -20 6 -0 -20 -20 -20 -11 -20 -20 -20 -20 23 7 -20 -20 -20 -20 -20 -20 -20 -20
-20 2 -20 -20 -20 -18 -14 -20 -20 -20 -20 -20 -20 -19 -5 -5 -20 -20 11 11 -20 -20 -20 -20 -20 14 -20 -20 -20 -20 -20 -20 -20 -20 -18 21 35 -14 -20 -20 -20 -20 -20 -20 -20
-20 -20 -20 -20 10 3 -20 -20 -20 -20 -20 -20 -20 -20 -20 -20 -3 -1 22 -20 -20 -20 -20 -20 -20 -19 -7 -20 -20 -20 -20 -20 -20 -1 -13 19 -8 -20 -20 0 -20 -20 -20 -20 -19
-20 -20 -20 -20 -20 -20 -20 -20 -20 -20 -20 -20 -20 -20 7 -20 8 -20 -20 -20 -20 -20 -20 -20 -4 15 -3 17 -19 -20 -20 -20 -20 -20 2 -1 21 -20 -20 -20 -20 -20 -20 -20 -20
-20 -20 -20 -20 -20 -20 -20 -20 -20 -20 -20 -20 -20 -17 -2 -16 -18 -15 -16 -20 -20 -20 -20 -20 -7 6 5 7 -20 -20 -20 -20 -20 -20 -15 24 -2 -20 -20 -20 -20 -20 -20 -20 -20
-20 -20 -20 -20 -20 -20 -20 -20 -20 -20 -20 -20 -20 -20 -20 21 18 -20 -19 -20 -20 -20 -20 -20 -20 -20 -20 -20 -20 -20 -2 -20 -20 -20 6 1 -7 -16 -20 -20 -20 -20 -20 -20 -20
-20 -20 -20 -20 -20 -20 -20 -20 -20 -20 -20 -20 -20 -20 -20 -20 -20 25 11 -11 5 -18 -20 -20 -11 -19 -20 -19 -12 -20 -20 -20 -20 -20 15 17 15 -20 -20 -20 -20 -20 -20 -20 -20
Wind_Speed
13 14 15 15 14 13 13 13 13 13 13 13 13 13 12 12 13 9 12 0 12 11 6 13 18 20 18 15 15 4 3 3 0 14 13 15 15 13 9 9 9 4 21 24 23
13 13 14 14 15 15 14 13 13 13 14 13 13 14 12 12 13 18 11 9 11 11 12 18 18 12 14 15 13 6 3 8 12 20 16 15 12 14 11 3 8 12 24 23 22
15 15 15 14 15 15 15 14 13 13 14 14 13 13 13 12 12 5 23 15 11 12 18 17 13 15 16 12 7 10 5 6 13 18 16 15 10 4 5 10 15 23 26 24 22
15 16 16 16 16 15 15 15 14 13 14 14 14 13 13 11 3 7 9 13 11 16 17 16 16 16 17 13 7 4 10 9 13 18 16 15 11 8 14 6 7 23 24 22 21
14 16 16 15 16 17 15 15 15 14 14 14 13 11 9 9 12 11 12 10 12 17 17 18 16 16 17 14 12 10 18 13 10 22 21 16 14 10 7 3 10 20 23 22 19
15 15 16 16 15 16 17 16 16 16 16 14 11 8 7 12 7 14 13 14 15 19 17 16 12 15 16 10 14 11 14 8 11 13 11 14 16 15 3 8 14 21 23 21 19
16 14 15 16 16 17 17 17 18 17 14 11 8 9 11 16 4 12 14 15 17 19 17 15 15 15 8 15 10 12 21 10 9 12 12 16 12 9 18 17 19 24 22 21 17
16 16 16 16 17 17 17 15 19 17 16 13 8 10 10 11 6 10 13 16 17 20 17 13 14 11 16 14 11 14 12 15 18 14 15 14 9 15 17 16 19 25 22 19 17
16 16 16 17 16 15 14 15 19 16 6 10 9 9 10 6 11 12 15 17 17 15 14 9 7 11 15 15 11 13 14 20 1 15 18 11 10 14 13 18 19 20 20 17 15
16 17 16 16 16 13 15 16 7 9 7 10 13 10 10 12 14 14 14 13 17 15 13 7 7 13 15 13 14 17 20 13 20 17 17 14 10 13 16 16 17 16 17 16 18
16 16 14 14 14 12 14 6 7 8 14 12 10 13 8 12 14 13 13 15 17 14 14 14 12 16 19 20 19 20 18 18 17 11 16 16 18 21 15 16 17 17 6 12 12
14 14 14 11 9 8 8 9 10 12 8 21 19 19 2 17 16 15 16 14 15 18 17 14 17 17 18 19 18 22 21 16 12 15 21 20 15 12 15 20 21 20 11 8 8
16 14 11 11 10 6 11 16 7 8 9 13 15 12 6 11 15 17 17 18 16 18 19 19 14 19 17 17 18 20 19 11 17 7 19 17 18 22 25 19 21 18 18 16 15
15 15 10 8 3 11 14 1 8 4 7 16 13 11 16 13 15 18 19 17 11 18 18 19 17 19 19 17 16 17 19 20 22 21 11 17 11 21 23 21 20 20 21 20 18
14 14 11 6 12 10 7 8 10 6 8 12 12 9 14 15 15 20 17 19 14 16 15 16 18 13 18 16 16 16 18 15 9 16 12 18 8 12 9 22 22 21 24 21 19
15 10 11 8 8 14 7 8 7 8 3 7 10 9 14 16 21 20 16 17 13 15 16 17 14 18 15 10 15 18 16 14 5 11 12 16 15 12 9 11 12 20 18 6 16
16 11 7 9 11 10 8 7 7 7 9 5 10 14 17 15 11 20 17 17 15 10 14 15 18 17 10 13 19 18 15 8 9 11 9 17 14 12 15 9 8 19 24 24 26
15 10 12 10 12 7 6 9 7 16 16 8 6 14 16 19 18 13 16 16 18 18 12 13 16 14 15 19 18 19 18 10 16 13 13 18 13 13 23 30 36 15 15 18 24
18 8 7 12 16 3 8 4 8 15 9 11 4 12 16 17 10 14 17 16 16 18 7 10 20 20 18 19 21 19 19 19 18 20 16 11 13 17 17 12 13 14 22 21 21
7 11 13 5 2 5 7 12 8 7 12 8 11 8 8 7 5 5 12 6 8 8 6 5 12 15 17 18 13 3 13 17 13 9 18 12 19 15 17 14 12 13 16 17 16
7 7 7 7 8 6 6 2 4 6 11 13 10 11 2 11 14 9 11 12 4 9 2 13 4 1 12 11 15 9 13 11 16 15 15 6 7 13 14 13 10 13 17 16 15
11 10 4 5 8 4 4 10 4 7 2 6 9 10 4 11 6 6 6 5 8 11 8 7 7 7 15 10 15 14 14 16 14 20 14 9 4 12 14 14 10 10 15 18 16
7 3 4 8 5 5 5 4 9 11 6 0 2 1 12 4 3 13 5 3 7 8 10 12 8 8 6 10 6 10 15 15 16 19 18 8 11 13 13 13 10 11 11 16 16
8 2 5 2 6 5 1 4 3 2 3 7 5 5 7 6 4 9 9 3 4 9 5 3 12 6 3 16 13 18 18 15 13 12 13 9 23 15 13 14 11 11 12 14 16
5 6 5 8 8 9 9 4 3 2 0 2 3 9 6 7 8 12 6 5 4 2 3 6 10 9 7 9 16 11 19 17 10 14 10 18 19 17 15 14 13 12 12 14 16
7 5 1 4 2 5 5 7 7 6 10 4 3 4 5 12 4 7 18 4 6 7 5 8 9 8 11 11 10 17 3 1 11 12 10 21 19 20 22 17 14 12 12 13 13
5 1 8 6 6 4 8 7 6 2 4 8 7 7 2 12 9 6 10 4 5 11 5 8 4 1 10 12 8 10 8 1 5 10 20 10 15 16 15 14 14 13 12 12 13
Wind_Direction
343 340 338 337 335 334 334 331 329 325 324 324 322 319 316 313 294 240 247 184 190 172 233 193 203 220 218 209 228 178 283 354 211 130 134 160 180 179 177 212 61 193 148 146 155
336 335 334 331 330 330 329 328 325 323 321 320 319 317 316 320 277 258 232 122 140 168 206 204 202 201 226 226 217 13 253 61 88 110 136 160 157 167 145 171 132 113 135 142 162
333 330 329 329 328 327 324 323 322 321 318 316 317 316 315 307 270 248 167 150 167 182 219 220 200 205 234 226 216 166 261 80 110 129 131 134 145 147 90 155 138 141 145 157 159
330 327 326 326 325 323 320 320 320 318 315 312 311 314 315 277 306 88 129 145 169 199 227 228 216 208 231 218 187 264 250 105 116 139 154 150 172 158 150 98 134 144 151 160 161
328 324 322 323 322 320 318 317 316 313 306 302 303 312 291 225 257 132 145 152 180 201 213 222 219 209 230 215 188 105 261 219 124 150 157 166 168 115 111 103 154 147 160 163 163
326 323 320 320 319 316 314 313 309 306 298 289 287 297 252 253 79 130 164 164 190 196 211 222 221 221 241 244 203 177 300 176 192 146 146 160 128 136 217 205 157 151 164 168 162
324 319 319 317 317 314 311 310 306 300 292 273 259 249 258 246 348 142 176 183 193 200 212 218 229 234 263 270 222 222 195 215 217 144 141 127 151 148 179 192 170 159 168 171 166
323 320 316 315 313 310 307 306 303 299 286 243 220 234 265 220 269 174 173 186 194 209 236 210 242 272 246 273 234 242 236 222 208 177 153 155 157 142 158 160 169 159 169 164 169
321 316 314 312 310 303 301 302 300 301 307 184 207 223 250 103 218 205 187 182 183 207 231 222 244 240 245 250 223 208 227 231 100 171 153 174 134 163 173 159 164 161 164 159 172
317 317 312 311 310 307 302 290 290 292 213 200 266 210 237 212 194 191 195 186 184 189 200 198 210 225 237 220 216 207 229 191 172 215 192 135 123 287 166 165 155 158 167 161 178
314 312 310 310 309 312 310 201 205 190 219 226 162 236 138 196 177 180 184 179 193 185 198 200 214 212 211 218 242 223 211 247 167 208 214 149 144 181 158 155 159 168 162 164 177
317 313 312 306 304 311 276 259 33 335 287 225 266 218 212 158 166 191 176 190 190 193 203 183 223 226 223 224 235 255 259 224 164 319 104 138 145 170 187 175 177 177 160 165 191
322 315 315 311 322 262 239 285 342 301 275 200 209 235 222 166 183 186 190 199 198 207 203 223 210 230 227 237 226 239 250 208 153 223 221 167 153 192 188 175 174 181 172 178 197
324 318 316 323 278 229 229 272 274 351 272 157 198 210 204 210 208 183 196 211 186 218 217 226 236 198 238 225 226 234 242 259 167 192 216 209 163 166 173 179 159 177 181 193 201
317 315 308 269 320 296 6 298 343 257 272 152 157 181 184 203 195 179 193 218 242 222 220 210 229 232 216 220 225 240 227 259 198 218 210 203 219 165 130 159 166 184 184 191 183
304 300 303 208 224 257 299 293 244 238 206 150 149 182 190 207 233 160 184 237 249 240 225 240 202 238 230 214 249 240 281 229 236 258 222 243 213 132 147 166 256 177 186 193 204
302 292 266 309 291 330 327 270 239 267 282 164 183 177 209 197 177 169 187 206 224 226 223 217 235 214 217 206 231 229 244 185 221 226 238 230 224 122 119 115 304 215 162 175 222
301 299 228 242 281 274 266 253 338 329 283 278 301 163 206 182 202 159 190 204 221 231 210 204 223 193 210 221 212 216 228 208 200 216 220 246 207 125 148 167 197 182 179 196 173
308 234 246 249 225 299 268 331 168 214 303 315 220 243 200 183 173 180 198 212 204 238 287 290 218 188 208 211 226 203 228 250 230 216 221 143 87 108 107 81 79 54 29 48 27
296 277 232 277 217 71 328 273 167 354 309 310 297 298 177 155 159 253 192 128 355 38 22 336 276 218 194 207 242 311 255 240 248 269 267 159 162 149 145 133 107 74 59 48 36
251 277 89 278 252 100 220 43 38 65 344 339 26 338 113 305 22 42 106 308 57 328 319 303 253 53 176 216 224 165 239 272 272 237 245 141 24 82 96 101 80 68 70 59 52
272 256 47 277 281 272 53 18 302 54 78 18 355 354 72 14 7 117 15 357 337 289 275 256 299 223 225 194 247 242 233 227 243 245 270 97 251 80 82 77 71 57 75 82 66
270 38 80 256 171 277 81 71 4 354 10 137 68 222 327 96 357 122 176 50 312 300 23 357 248 242 224 179 247 243 248 258 270 261 270 154 149 111 103 94 88 85 76 87 87
278 279 116 59 355 27 92 30 109 44 10 329 6 268 213 169 204 307 151 111 341 11 351 317 274 64 324 317 295 213 234 244 265 269 264 109 129 132 124 123 118 100 92 87 87
282 47 346 9 36 35 6 10 328 63 351 278 211 293 93 337 188 251 195 157 222 145 281 264 266 293 199 289 322 278 211 233 253 268 346 126 143 143 142 133 122 113 97 87 85
331 345 133 72 274 220 134 17 48 59 333 95 356 319 283 141 303 310 314 204 194 197 245 280 285 332 292 275 304 329 162 244 232 267 240 146 151 125 128 137 125 113 101 89 84
0 259 277 136 266 46 37 27 51 8 42 26 4 328 6 38 2 170 308 329 147 302 260 250 291 336 262 239 260 275 297 195 276 286 93 116 141 129 137 127 122 105 95 92 84